Pittsfield, IL

4:35 AM CDT on August 25, 2016 (GMT -0500)
Pittsfield Penstone Municipal

Weather History for KPPQ - January, 2013

Change the Weather History Date:

Monday, January 7, 2013

  Actual Average (KUIN) Record (KUIN)
Temperature  
Mean Temperature 33 °F 26 °F  
Max Temperature 44 °F 34 °F 70 °F (1907)
Min Temperature 22 °F 19 °F -19 °F (1912)
Degree Days  
Heating Degree Days 32 39  
Month to date heating degree days 269  
Since 1 July heating degree days 2460  
Cooling Degree Days 0 0  
Month to date cooling degree days 0  
Year to date cooling degree days 0  
Moisture  
Dew Point 25 °F    
Average Humidity 73    
Maximum Humidity 89    
Minimum Humidity 54    
Precipitation  
Precipitation 0.00 in 0.05 in 1.38 in (2008)
Month to date precipitation 0.38  
Year to date precipitation 0.38  
Sea Level Pressure  
Sea Level Pressure 30.25 in    
Wind  
Wind Speed 7 mph (South)    
Max Wind Speed 13 mph    
Max Gust Speed 18 mph    
Visibility 10 miles    
Events      
T = Trace of Precipitation, MM = Missing Value Source: NWS Daily Summary

Daily Weather History Graph

Daily Weather History Graph

Search for Another Location

Airport or City:

Trip Planner

Search our weather history database for the weather conditions in past years. The results will help you decide how hot, cold, wet, or windy it might be!

Date:

Astronomy

Jan. 07, 2013 Rise Set
Actual Time 7:24 AM CST 4:55 PM CST
Civil Twilight 6:54 AM CST 5:25 PM CST
Nautical Twilight 6:20 AM CST 5:58 PM CST
Astronomical Twilight 5:47 AM CST 6:31 PM CST
Moon 2:48 AM CST (1/7) 1:06 PM CST (1/7)
Length of Visible Light 10h 31m
Length of Day
9h 31m
Waning Crescent, 22% of the Moon is Illuminated
Jan 7
Waning Crescent
Jan 11
New
Jan 18
First Quarter
Jan 26
Full
Feb 3
Last Quarter

Hourly Weather History & Observations

Time (CST) Temp. Windchill Dew Point Humidity Pressure Visibility Wind Dir Wind Speed Gust Speed Precip Events Conditions
12:15 AM 23.0 °F - 20.1 °F 89% 30.35 in 10.0 mi Calm Calm - N/A   Clear
12:35 AM 22.5 °F 16.3 °F 19.6 °F 89% 30.35 in 10.0 mi South 4.6 mph - N/A   Clear
12:55 AM 24.8 °F 19.1 °F 20.8 °F 85% 30.35 in 10.0 mi South 4.6 mph - N/A   Clear
1:15 AM 24.8 °F 17.9 °F 21.2 °F 86% 30.35 in 10.0 mi South 5.8 mph - N/A   Clear
1:35 AM 23.9 °F 18.0 °F 20.3 °F 86% 30.35 in 10.0 mi South 4.6 mph - N/A   Clear
1:55 AM 23.9 °F 16.8 °F 20.7 °F 87% 30.36 in 10.0 mi South 5.8 mph - N/A   Clear
2:15 AM 23.0 °F 15.8 °F 19.9 °F 88% 30.36 in 10.0 mi South 5.8 mph - N/A   Clear
2:35 AM 22.3 °F 16.1 °F 19.6 °F 89% 30.36 in 10.0 mi South 4.6 mph - N/A   Clear
2:55 AM 23.4 °F 16.2 °F 20.1 °F 87% 30.37 in 10.0 mi South 5.8 mph - N/A   Clear
3:15 AM 23.9 °F 15.8 °F 20.3 °F 86% 30.36 in 10.0 mi South 6.9 mph - N/A   Clear
3:35 AM 24.3 °F 16.3 °F 20.3 °F 85% 30.36 in 10.0 mi South 6.9 mph - N/A   Clear
3:55 AM 23.7 °F 16.6 °F 20.1 °F 86% 30.36 in 10.0 mi South 5.8 mph - N/A   Clear
4:15 AM 23.2 °F 16.0 °F 19.8 °F 87% 30.35 in 10.0 mi South 5.8 mph - N/A   Clear
4:35 AM 23.0 °F 17.0 °F 19.4 °F 86% 30.35 in 10.0 mi South 4.6 mph - N/A   Clear
4:55 AM 22.3 °F - 19.4 °F 89% 30.35 in 10.0 mi Calm Calm - N/A   Clear
5:15 AM 22.6 °F 18.0 °F 19.4 °F 87% 30.34 in 10.0 mi South 3.5 mph - N/A   Clear
5:35 AM 22.6 °F 15.3 °F 19.4 °F 87% 30.33 in 10.0 mi SSE 5.8 mph - N/A   Clear
5:55 AM 23.0 °F 17.0 °F 19.4 °F 86% 30.34 in 10.0 mi SSE 4.6 mph - N/A   Clear
6:15 AM 23.0 °F 17.0 °F 19.4 °F 86% 30.33 in 10.0 mi SSE 4.6 mph - N/A   Clear
6:35 AM 23.4 °F 17.4 °F 19.6 °F 85% 30.33 in 10.0 mi SSE 4.6 mph - N/A   Clear
6:55 AM 23.9 °F 14.2 °F 20.1 °F 85% 30.33 in 10.0 mi SSE 9.2 mph - N/A   Clear
7:15 AM 24.8 °F 15.3 °F 20.3 °F 83% 30.33 in 10.0 mi South 9.2 mph - N/A   Clear
7:35 AM 25.5 °F 16.9 °F 20.7 °F 82% 30.33 in 10.0 mi SSE 8.1 mph - N/A   Clear
7:55 AM 26.4 °F 18.0 °F 21.2 °F 81% 30.33 in 10.0 mi SSE 8.1 mph - N/A   Clear
8:15 AM 26.6 °F 18.2 °F 21.4 °F 81% 30.33 in 10.0 mi South 8.1 mph - N/A   Clear
8:35 AM 27.3 °F 19.1 °F 22.5 °F 82% 30.33 in 10.0 mi SSE 8.1 mph - N/A   Clear
8:55 AM 29.5 °F 19.9 °F 23.5 °F 79% 30.33 in 10.0 mi South 11.5 mph - N/A   Clear
9:15 AM 31.5 °F 22.3 °F 23.5 °F 73% 30.33 in 10.0 mi South 11.5 mph - N/A   Clear
9:35 AM 32.2 °F 23.2 °F 24.3 °F 73% 30.33 in 10.0 mi South 11.5 mph - N/A   Clear
9:55 AM 33.3 °F 24.6 °F 24.6 °F 71% 30.33 in 10.0 mi South 11.5 mph - N/A   Clear
10:15 AM 34.7 °F 26.4 °F 23.9 °F 65% 30.33 in 10.0 mi South 11.5 mph - N/A   Clear
10:35 AM 35.2 °F 27.6 °F 24.8 °F 66% 30.32 in 10.0 mi South 10.4 mph - N/A   Clear
10:55 AM 36.0 °F 27.5 °F 25.0 °F 64% 30.31 in 10.0 mi South 12.7 mph - N/A   Clear
11:15 AM 36.5 °F 28.7 °F 25.2 °F 64% 30.29 in 10.0 mi South 11.5 mph - N/A   Clear
11:35 AM 37.9 °F 31.5 °F 25.7 °F 61% 30.27 in 10.0 mi South 9.2 mph 16.1 mph N/A   Clear
11:55 AM 38.5 °F 31.6 °F 26.1 °F 61% 30.26 in 10.0 mi South 10.4 mph - N/A   Clear
12:15 PM 39.4 °F 31.8 °F 26.8 °F 61% 30.24 in 10.0 mi South 12.7 mph 18.4 mph N/A   Clear
12:35 PM 40.1 °F 33.6 °F 27.0 °F 59% 30.23 in 10.0 mi South 10.4 mph - N/A   Clear
12:55 PM 41.0 °F 35.2 °F 26.6 °F 57% 30.23 in 10.0 mi South 9.2 mph - N/A   Clear
1:15 PM 41.9 °F 35.0 °F 27.3 °F 56% 30.21 in 10.0 mi South 12.7 mph 17.3 mph N/A   Clear
1:35 PM 42.6 °F 36.8 °F 28.4 °F 57% 30.21 in 10.0 mi South 10.4 mph - N/A   Clear
1:55 PM 43.0 °F 37.2 °F 28.0 °F 56% 30.20 in 10.0 mi South 10.4 mph - N/A   Clear
2:15 PM 43.5 °F 37.1 °F 29.7 °F 58% 30.18 in 10.0 mi SSE 12.7 mph 18.4 mph N/A   Clear
2:35 PM 43.7 °F 39.1 °F 28.8 °F 56% 30.18 in 10.0 mi South 8.1 mph - N/A   Clear
2:55 PM 43.9 °F 38.3 °F 29.3 °F 57% 30.17 in 10.0 mi South 10.4 mph - N/A   Clear
3:15 PM 44.6 °F 38.8 °F 28.8 °F 54% 30.17 in 10.0 mi South 11.5 mph - N/A   Clear
3:35 PM 43.3 °F 37.7 °F 29.3 °F 58% 30.17 in 10.0 mi South 10.4 mph - N/A   Clear
3:55 PM 42.6 °F 37.8 °F 28.9 °F 58% 30.17 in 10.0 mi South 8.1 mph - N/A   Clear
4:15 PM 40.8 °F 34.5 °F 29.3 °F 64% 30.16 in 10.0 mi SSE 10.4 mph - N/A   Clear
4:35 PM 40.3 °F 34.4 °F 28.9 °F 64% 30.16 in 10.0 mi South 9.2 mph - N/A   Clear
4:55 PM 41.0 °F 35.2 °F 28.4 °F 61% 30.16 in 10.0 mi South 9.2 mph - N/A   Clear
5:15 PM 38.8 °F 33.8 °F 28.4 °F 66% 30.16 in 10.0 mi South 6.9 mph - N/A   Clear
5:35 PM 38.5 °F 32.1 °F 28.4 °F 67% 30.15 in 10.0 mi South 9.2 mph - N/A   Clear
5:55 PM 38.7 °F 31.8 °F 28.2 °F 66% 30.15 in 10.0 mi South 10.4 mph - N/A   Clear
6:15 PM 37.4 °F 30.3 °F 28.4 °F 70% 30.14 in 10.0 mi SSE 10.4 mph - N/A   Clear
6:35 PM 37.6 °F 31.0 °F 28.4 °F 69% 30.14 in 10.0 mi South 9.2 mph - N/A   Clear
6:55 PM 38.1 °F 31.2 °F 28.2 °F 68% 30.14 in 10.0 mi South 10.4 mph - N/A   Clear
7:15 PM 37.6 °F 31.6 °F 28.4 °F 69% 30.13 in 10.0 mi South 8.1 mph - N/A   Clear
7:35 PM 37.0 °F 31.0 °F 28.4 °F 71% 30.13 in 10.0 mi SSE 8.1 mph - N/A   Clear
7:55 PM 36.5 °F 30.3 °F 28.4 °F 72% 30.13 in 10.0 mi SSE 8.1 mph - N/A   Clear
8:15 PM 35.6 °F 31.7 °F 27.9 °F 73% 30.13 in 10.0 mi SSE 4.6 mph - N/A   Clear
8:35 PM 35.4 °F 32.6 °F 28.2 °F 75% 30.13 in 10.0 mi SE 3.5 mph - N/A   Clear
8:55 PM 34.5 °F 30.4 °F 28.4 °F 78% 30.13 in 10.0 mi SE 4.6 mph - N/A   Clear
9:35 PM 34.7 °F 29.6 °F 28.0 °F 77% 30.13 in 10.0 mi SSE 5.8 mph - N/A   Clear
9:55 PM 34.3 °F 28.4 °F 27.5 °F 76% 30.13 in 10.0 mi South 6.9 mph - N/A   Clear
10:15 PM 36.5 °F 30.3 °F 27.0 °F 68% 30.13 in 10.0 mi South 8.1 mph - N/A   Clear
10:35 PM 37.4 °F 32.8 °F 26.6 °F 65% 30.13 in 10.0 mi South 5.8 mph - N/A   Clear
10:55 PM 36.7 °F 32.0 °F 26.4 °F 66% 30.13 in 10.0 mi South 5.8 mph - N/A   Clear
11:15 PM 36.3 °F 30.8 °F 26.2 °F 67% 30.13 in 10.0 mi South 6.9 mph - N/A   Clear
11:35 PM 36.1 °F 31.4 °F 26.1 °F 67% 30.13 in 10.0 mi SSW 5.8 mph - N/A   Clear
11:55 PM 36.0 °F 30.3 °F 26.1 °F 67% 30.13 in 10.0 mi South 6.9 mph - N/A   Clear